• In Hungary
  • List of Countries
  • For 7 days
  • Water Temperature
  • Satellite Maps
  • Weather Map
  • News
  • Weather Widgets
  • user-avatar
    Login

    Hourly Weather Okskiy

    Today, 18 June, Monday

    Time Temperature Precipitation Wind Pressure Humidity
    00:00 +15°C° 0 mm 1 mps 754 mmHg 75%
    01:00 +15°C° 0 mm 1 mps 754 mmHg 77%
    02:00 +14°C° 0 mm 1 mps 754 mmHg 79%
    03:00 +14°C° 0 mm 1 mps 754 mmHg 81%
    04:00 +15°C° 0 mm 1 mps 754 mmHg 79%
    05:00 +16°C° 0 mm 1 mps 754 mmHg 78%
    06:00 +18°C° 0 mm 1 mps 754 mmHg 77%
    07:00 +20°C° 0 mm 1 mps 754 mmHg 71%
    08:00 +22°C° 0 mm 1 mps 754 mmHg 65%
    09:00 +24°C° 0 mm 1 mps 754 mmHg 59%
    10:00 +25°C° 0 mm 1 mps 754 mmHg 55%
    11:00 +26°C° 0 mm 1 mps 754 mmHg 50%
    12:00 +28°C° 0 mm 1 mps 754 mmHg 46%
    13:00 +28°C° 0 mm 1 mps 754 mmHg 46%
    14:00 +28°C° 0 mm 1 mps 753 mmHg 46%
    15:00 +28°C° 0 mm 1 mps 753 mmHg 46%
    16:00 +27°C° 0 mm 1 mps 753 mmHg 51%
    17:00 +27°C° 0 mm 1 mps 753 mmHg 55%
    18:00 +26°C° 0 mm 1 mps 753 mmHg 60%
    19:00 +24°C° 0 mm 1 mps 753 mmHg 64%
    20:00 +23°C° 0 mm 1 mps 753 mmHg 68%
    21:00 +21°C° 0 mm 1 mps 753 mmHg 72%
    22:00 +20°C° 0 mm 1 mps 753 mmHg 73%
    23:00 +19°C° 0 mm 1 mps 753 mmHg 74%

    Tomorrow, 19 June, Tuesday

    Time Temperature Precipitation Wind Pressure Humidity
    00:00 +19°C° 0 mm 1 mps 753 mmHg 76%
    01:00 +18°C° 0 mm 1 mps 753 mmHg 77%
    02:00 +18°C° 0 mm 1 mps 753 mmHg 78%
    03:00 +16°C° 0 mm 1 mps 753 mmHg 80%
    04:00 +18°C° 0 mm 1 mps 753 mmHg 79%
    05:00 +18°C° 0 mm 2 mps 753 mmHg 79%
    06:00 +18°C° 0 mm 2 mps 753 mmHg 78%
    07:00 +20°C° 0 mm 2 mps 753 mmHg 73%
    08:00 +23°C° 0 mm 2 mps 753 mmHg 68%
    09:00 +25°C° 0 mm 2 mps 752 mmHg 62%
    10:00 +26°C° 0 mm 3 mps 752 mmHg 60%
    11:00 +26°C° 0 mm 3 mps 752 mmHg 57%
    12:00 +27°C° 0 mm 4 mps 752 mmHg 55%
    13:00 +27°C° 0.1 mm 4 mps 751 mmHg 58%
    14:00 +26°C° 0.1 mm 4 mps 751 mmHg 61%
    15:00 +26°C° 0.1 mm 5 mps 751 mmHg 64%
    16:00 +26°C° 0.3 mm 4 mps 751 mmHg 67%
    17:00 +26°C° 0.3 mm 4 mps 750 mmHg 71%
    18:00 +25°C° 0.3 mm 4 mps 750 mmHg 74%
    19:00 +23°C° 0.1 mm 4 mps 750 mmHg 79%
    20:00 +22°C° 0.1 mm 3 mps 750 mmHg 85%
    21:00 +20°C° 0.1 mm 3 mps 750 mmHg 91%
    22:00 +20°C° 0 mm 3 mps 750 mmHg 91%
    23:00 +19°C° 0 mm 3 mps 750 mmHg 92%

    Day after tomorrow, 20 June, Wednesday

    Time Temperature Precipitation Wind Pressure Humidity
    00:00 +18°C° 0 mm 3 mps 750 mmHg 93%
    01:00 +18°C° 0 mm 3 mps 750 mmHg 93%
    02:00 +18°C° 0 mm 3 mps 750 mmHg 93%
    03:00 +17°C° 0 mm 3 mps 750 mmHg 93%
    04:00 +18°C° 0 mm 3 mps 750 mmHg 90%
    05:00 +18°C° 0 mm 4 mps 750 mmHg 88%
    06:00 +18°C° 0 mm 4 mps 750 mmHg 85%
    07:00 +20°C° 0 mm 4 mps 750 mmHg 79%
    08:00 +21°C° 0 mm 4 mps 750 mmHg 72%
    09:00 +22°C° 0 mm 5 mps 751 mmHg 65%
    10:00 +23°C° 0 mm 5 mps 751 mmHg 63%
    11:00 +25°C° 0 mm 5 mps 750 mmHg 60%
    12:00 +26°C° 0 mm 6 mps 750 mmHg 58%
    13:00 +26°C° 0.1 mm 6 mps 750 mmHg 57%
    14:00 +26°C° 0.1 mm 6 mps 750 mmHg 57%
    15:00 +26°C° 0.1 mm 6 mps 750 mmHg 56%
    16:00 +26°C° 0 mm 5 mps 750 mmHg 59%
    17:00 +25°C° 0 mm 4 mps 750 mmHg 61%
    18:00 +25°C° 0 mm 4 mps 750 mmHg 63%
    19:00 +22°C° 0 mm 3 mps 751 mmHg 68%
    20:00 +21°C° 0 mm 3 mps 751 mmHg 72%
    21:00 +19°C° 0 mm 3 mps 751 mmHg 77%
    22:00 +18°C° 0 mm 3 mps 751 mmHg 77%
    23:00 +17°C° 0 mm 3 mps 751 mmHg 78%

    21 June, Thursday

    Time Temperature Precipitation Wind Pressure Humidity
    00:00 +16°C° 0 mm 2 mps 752 mmHg 78%
    01:00 +15°C° 0 mm 2 mps 752 mmHg 78%
    02:00 +15°C° 0 mm 2 mps 752 mmHg 77%
    03:00 +14°C° 0 mm 2 mps 752 mmHg 77%
    04:00 +14°C° 0 mm 3 mps 752 mmHg 77%
    05:00 +14°C° 0 mm 3 mps 752 mmHg 78%
    06:00 +16°C° 0 mm 3 mps 752 mmHg 78%
    07:00 +18°C° 0 mm 4 mps 752 mmHg 70%
    08:00 +19°C° 0 mm 4 mps 752 mmHg 63%
    09:00 +21°C° 0 mm 5 mps 752 mmHg 56%
    10:00 +22°C° 0 mm 5 mps 752 mmHg 53%
    11:00 +22°C° 0 mm 5 mps 752 mmHg 50%
    12:00 +23°C° 0 mm 6 mps 752 mmHg 47%
    13:00 +23°C° 0 mm 5 mps 752 mmHg 47%
    14:00 +25°C° 0 mm 5 mps 752 mmHg 47%
    15:00 +25°C° 0 mm 5 mps 752 mmHg 47%
    16:00 +25°C° 0 mm 4 mps 752 mmHg 50%
    17:00 +25°C° 0 mm 4 mps 752 mmHg 54%
    18:00 +24°C° 0 mm 3 mps 752 mmHg 57%
    19:00 +22°C° 0 mm 3 mps 752 mmHg 63%
    20:00 +20°C° 0 mm 2 mps 752 mmHg 69%
    21:00 +18°C° 0 mm 2 mps 753 mmHg 76%
    22:00 +17°C° 0 mm 2 mps 753 mmHg 78%
    23:00 +17°C° 0 mm 2 mps 753 mmHg 81%

    22 June, Friday

    Time Temperature Precipitation Wind Pressure Humidity
    00:00 +16°C° 0 mm 2 mps 753 mmHg 84%
    01:00 +16°C° 0 mm 2 mps 753 mmHg 86%
    02:00 +15°C° 0 mm 2 mps 753 mmHg 88%
    03:00 +15°C° 0 mm 2 mps 753 mmHg 90%
    04:00 +16°C° 0 mm 2 mps 753 mmHg 88%
    05:00 +17°C° 0 mm 2 mps 753 mmHg 85%
    06:00 +18°C° 0 mm 2 mps 753 mmHg 83%
    07:00 +20°C° 0 mm 3 mps 753 mmHg 77%
    08:00 +21°C° 0 mm 3 mps 752 mmHg 71%
    09:00 +23°C° 0 mm 4 mps 752 mmHg 65%
    10:00 +25°C° 0 mm 4 mps 752 mmHg 63%
    11:00 +26°C° 0 mm 5 mps 752 mmHg 60%
    12:00 +27°C° 0 mm 5 mps 752 mmHg 58%
    13:00 +28°C° 0 mm 5 mps 751 mmHg 58%
    14:00 +28°C° 0 mm 5 mps 751 mmHg 58%
    15:00 +28°C° 0 mm 6 mps 750 mmHg 59%
    16:00 +28°C° 0 mm 5 mps 750 mmHg 62%
    17:00 +28°C° 0 mm 5 mps 750 mmHg 65%
    18:00 +27°C° 0 mm 4 mps 750 mmHg 67%
    19:00 +26°C° 0 mm 4 mps 750 mmHg 73%
    20:00 +25°C° 0 mm 4 mps 750 mmHg 78%
    21:00 +22°C° 0 mm 4 mps 750 mmHg 83%
    22:00 +22°C° 0 mm 4 mps 750 mmHg 84%
    23:00 +21°C° 0 mm 4 mps 750 mmHg 85%

    23 June, Saturday

    Time Temperature Precipitation Wind Pressure Humidity
    00:00 +21°C° 0 mm 4 mps 750 mmHg 85%
    01:00 +21°C° 0 mm 4 mps 750 mmHg 86%
    02:00 +20°C° 0 mm 4 mps 750 mmHg 86%
    03:00 +20°C° 0 mm 4 mps 749 mmHg 87%
    04:00 +20°C° 0 mm 4 mps 749 mmHg 85%
    05:00 +21°C° 0 mm 4 mps 749 mmHg 83%
    06:00 +21°C° 0 mm 5 mps 749 mmHg 80%
    07:00 +22°C° 0 mm 5 mps 749 mmHg 76%
    08:00 +25°C° 0 mm 5 mps 749 mmHg 72%
    09:00 +26°C° 0 mm 5 mps 749 mmHg 68%
    10:00 +27°C° 0.5 mm 5 mps 749 mmHg 67%
    11:00 +28°C° 0.5 mm 5 mps 749 mmHg 66%
    12:00 +29°C° 0.5 mm 6 mps 749 mmHg 65%
    13:00 +28°C° 0.9 mm 5 mps 749 mmHg 67%
    14:00 +28°C° 0.9 mm 5 mps 749 mmHg 68%
    15:00 +28°C° 0.9 mm 5 mps 749 mmHg 69%
    16:00 +27°C° 1.4 mm 4 mps 749 mmHg 73%
    17:00 +27°C° 1.4 mm 3 mps 750 mmHg 77%
    18:00 +26°C° 1.4 mm 3 mps 750 mmHg 81%
    19:00 +24°C° 0.6 mm 2 mps 750 mmHg 84%
    20:00 +23°C° 0.6 mm 1 mps 750 mmHg 87%
    21:00 +22°C° 0.6 mm 1 mps 750 mmHg 90%
    22:00 +21°C° 1 mm 1 mps 750 mmHg 92%
    23:00 +21°C° 1 mm 1 mps 750 mmHg 93%
    Show more